Starlink 32748

operational
NORAD ID: 62524 Int'l Des: 2025-004 Owner: SPXS Country: US Constellation: starlink
LEOCIRCULAR

关于 Starlink 32748

正在加载描述...

实时位置

正在加载3D地球...

即将过境

高度历史

Altitude vs Time

uPlot chart will show altitude changes over time

两行轨道根数

1 62524U 25004P 25353.61070576 .00011222 00000-0 41670-3 0 9999
2 62524 43.0013 311.9405 0001676 261.8162 98.2499 15.27580544 54215
Epoch: Dec 19, 2025 • Age: 9 hours

当前状态

高度 482.3 km
速度 7.63 km/s
星下点 6.51°N, 45.44°E
发射日期 Jan 8, 2025
运行时间 0.9 years
类型 internet

技术详情

分类 Payload
质量 730.00 kg
干质量 700.00 kg
总质量 730.00 kg
长度 0.30 m
直径 4.10 m
跨度 29.00 m
形状 Box + pan
制造商 SPXS
平台类型 Starlink V2M
阶段状态 In Orbit
所有者/国家 SPXS/US

大型星座

Loading constellations...